TimePDT,TemperatureF,Dew PointF,Humidity,Sea Level PressureIn,VisibilityMPH,Wind Direction,Wind SpeedMPH,Gust SpeedMPH,PrecipitationIn,Events,Conditions,WindDirDegrees,DateUTC
12:53 AM,69.1,43.0,39,29.70,10.0,NNW,6.9,-,N/A,,Clear,330,2013-04-12 07:53:00
1:53 AM,66.9,44.1,44,29.71,10.0,Calm,Calm,-,N/A,,Clear,0,2013-04-12 08:53:00
2:53 AM,66.9,44.1,44,29.70,10.0,Calm,Calm,-,N/A,,Clear,0,2013-04-12 09:53:00
3:53 AM,64.9,46.0,50,29.69,10.0,Calm,Calm,-,N/A,,Clear,0,2013-04-12 10:53:00
4:53 AM,64.0,46.0,52,29.70,10.0,NW,3.5,-,N/A,,Clear,310,2013-04-12 11:53:00
5:53 AM,64.0,44.1,48,29.70,10.0,NNW,8.1,-,N/A,,Mostly Cloudy,330,2013-04-12 12:53:00
6:53 AM,63.0,45.0,52,29.71,10.0,NW,4.6,-,N/A,,Mostly Cloudy,320,2013-04-12 13:53:00
7:53 AM,64.9,46.9,52,29.73,10.0,South,3.5,-,N/A,,Mostly Cloudy,170,2013-04-12 14:53:00
8:53 AM,70.0,45.0,41,29.75,10.0,Calm,Calm,-,N/A,,Scattered Clouds,0,2013-04-12 15:53:00
9:53 AM,75.0,42.1,31,29.76,10.0,Calm,Calm,-,N/A,,Scattered Clouds,0,2013-04-12 16:53:00
10:53 AM,79.0,42.1,27,29.77,10.0,SSE,5.8,-,N/A,,Partly Cloudy,150,2013-04-12 17:53:00
11:53 AM,82.9,37.9,20,29.75,10.0,SE,5.8,-,N/A,,Clear,140,2013-04-12 18:53:00
12:53 PM,88.0,37.0,16,29.74,10.0,ESE,5.8,-,N/A,,Clear,120,2013-04-12 19:53:00
1:53 PM,90.0,34.0,14,29.72,10.0,ESE,10.4,-,N/A,,Scattered Clouds,110,2013-04-12 20:53:00
2:53 PM,91.0,36.0,14,29.69,10.0,SE,13.8,19.6,N/A,,Clear,130,2013-04-12 21:53:00
3:53 PM,91.0,34.0,13,29.67,10.0,ESE,15.0,20.7,N/A,,Clear,120,2013-04-12 22:53:00
4:53 PM,89.1,33.1,14,29.66,10.0,ESE,13.8,-,N/A,,Clear,110,2013-04-12 23:53:00
5:53 PM,88.0,30.9,13,29.66,10.0,East,11.5,-,N/A,,Clear,100,2013-04-13 00:53:00
6:53 PM,84.0,32.0,15,29.68,10.0,East,8.1,-,N/A,,Clear,90,2013-04-13 01:53:00
7:53 PM,82.0,30.0,15,29.71,10.0,Calm,Calm,-,N/A,,Clear,0,2013-04-13 02:53:00
8:53 PM,81.0,32.0,17,29.74,10.0,NW,3.5,-,N/A,,Clear,320,2013-04-13 03:53:00
9:53 PM,78.1,48.0,35,29.75,10.0,NW,9.2,-,N/A,,Clear,320,2013-04-13 04:53:00
10:53 PM,75.9,46.9,36,29.76,10.0,Calm,Calm,-,N/A,,Clear,0,2013-04-13 05:53:00
11:53 PM,71.1,48.0,44,29.77,10.0,Calm,Calm,-,N/A,,Clear,0,2013-04-13 06:53:00